Location: Aragüita
(10.0436°N, 67.8028°W)
Time: 13:44:26
(UTC+00:00)

Cosmos 1862 Rocket - Pass Details

Date: 17 January 2026
Orbit: 596 x 627 km, 82.5° (Epoch: 8 February)

Event Time Altitude Azimuth Distance (km) Brightness Sun altitude
Rises 00:22:19 0° 226° (SW) 2,903 8.0 -27.1°
Reaches altitude 10° 00:26:38 10° 266° (W) 1,996 7.1 -28.1°
Maximum altitude 00:27:25 10° 277° (W) 1,968 6.9 -28.3°
Drops below altitude 10° 00:28:13 10° 287° (WNW) 1,995 6.8 -28.5°
Sets 00:32:33 0° 328° (NNW) 2,897 7.2 -29.5°
